Theta_e
302 296 294 298 297 296 294 292 292 294 300 298 297 299 302 304 297 295 296 297 300 310 317 319 322 324 319 322 324 324 324 325 324 323 321 321 320 321 321 322 322 321 321 319
297 293 294 297 296 296 297 295 293 296 300 297 296 296 299 302 302 301 302 302 298 300 306 313 319 321 323 321 323 324 324 325 325 325 324 324 323 323 323 323 322 322 321 320
293 295 296 295 292 293 294 294 294 294 296 296 294 294 295 300 302 304 305 303 302 300 301 303 313 319 322 322 322 324 325 325 325 327 326 321 322 318 319 321 321 321 322 321
295 297 295 292 292 293 287 293 295 295 294 288 292 285 292 296 299 300 304 306 306 303 302 304 304 315 319 322 324 323 324 325 326 326 325 324 324 322 324 324 324 323 322 322
290 293 293 292 294 295 290 295 293 293 289 288 286 287 287 294 295 299 301 304 307 309 308 305 305 309 317 320 323 323 323 324 325 325 326 324 323 324 324 324 321 321 321 322
292 291 295 294 294 296 295 293 292 292 291 284 288 288 288 290 293 297 298 302 306 308 308 308 308 306 311 318 320 322 321 321 324 324 324 323 323 322 321 319 319 319 320 320
289 290 290 295 292 294 296 290 281 281 281 279 287 287 289 293 296 296 296 299 304 307 307 305 302 302 307 312 317 320 320 319 322 322 323 323 323 322 320 320 320 319 320 319
283 280 291 294 291 288 291 288 280 273 275 278 283 284 290 295 299 298 297 301 299 299 301 303 302 301 304 308 315 318 318 319 320 321 322 323 323 323 322 322 321 321 320 320
278 279 286 289 292 293 287 287 291 284 282 280 280 284 290 295 294 296 295 295 297 300 302 299 300 301 302 306 313 317 318 318 319 320 322 322 322 322 322 322 321 321 321 320
284 278 285 288 292 292 288 291 285 286 277 274 280 280 284 287 288 291 293 296 299 299 298 298 297 299 301 305 311 315 318 318 319 319 321 321 321 322 322 320 319 320 320 319
287 282 284 290 287 285 288 286 286 285 282 276 275 279 290 290 293 294 297 297 295 295 295 296 296 297 300 304 310 312 315 317 319 319 319 320 320 321 321 320 320 320 319 319
287 283 273 280 287 288 291 287 287 282 276 282 283 283 291 291 291 290 291 291 290 290 291 293 293 294 295 302 307 311 314 316 318 319 320 319 320 320 320 320 319 319 319 318
289 281 269 277 283 288 287 288 290 289 287 282 281 283 291 290 286 286 286 289 288 289 289 289 291 291 293 300 305 310 312 314 316 317 319 319 319 320 320 320 318 316 317 315
293 285 278 273 277 282 282 284 287 288 283 282 283 285 290 292 293 291 289 290 290 289 292 289 290 292 293 294 303 307 310 313 314 315 316 315 315 317 319 318 312 310 309 307
288 279 280 281 281 281 281 280 282 282 285 282 284 285 290 293 294 295 297 299 300 300 300 295 291 292 294 295 295 300 305 304 307 311 311 311 310 311 307 306 304 303 305 303
286 273 279 275 281 280 279 281 281 281 283 283 285 286 293 295 297 297 298 296 296 296 298 297 292 292 294 295 297 297 300 302 304 306 307 303 303 302 302 300 299 298 296 296
283 278 276 265 278 280 275 278 280 281 282 282 279 285 291 291 293 295 297 297 298 299 300 300 297 294 294 296 297 297 297 298 301 301 299 299 298 296 295 294 295 293 293 292
280 273 268 262 265 261 278 282 283 281 283 286 287 288 291 291 294 297 298 297 298 299 300 298 294 294 295 296 296 296 295 295 295 294 294 293 294 293 292 293 292 290 290 289
282 278 270 265 256 270 278 279 282 282 282 289 288 288 290 292 293 294 298 299 299 301 302 301 298 295 295 296 297 295 292 293 292 291 292 292 293 292 291 290 290 287 287 286
282 281 272 262 261 261 275 278 282 285 276 286 286 287 287 288 285 290 297 299 299 300 301 299 294 294 295 295 294 293 292 292 293 292 291 292 292 291 291 289 287 282 287 284
278 279 276 274 272 271 280 282 287 275 278 286 289 289 290 288 292 295 297 298 300 299 299 295 292 293 295 291 292 293 292 293 293 289 289 288 289 289 289 287 285 286 285 284
276 275 274 276 273 270 283 282 280 285 285 284 288 289 289 290 291 292 293 295 296 297 298 291 291 290 290 291 293 293 292 291 289 289 288 287 288 287 287 287 286 285 285 283
274 277 273 277 277 282 283 285 289 288 287 287 286 289 290 290 290 291 291 292 293 294 295 287 289 286 287 288 292 292 292 289 289 288 287 287 286 286 286 286 284 283 283 283
278 281 280 276 283 282 284 286 286 286 286 287 287 287 289 289 291 289 288 289 289 290 291 283 286 288 287 288 289 289 289 290 289 288 287 286 285 284 284 285 284 283 282 282
279 280 279 278 283 280 283 283 285 287 287 287 288 287 289 289 289 289 288 288 288 287 288 283 287 289 289 288 288 286 288 289 289 287 286 285 284 284 282 281 282 281 279 284
281 280 278 277 283 282 284 287 288 286 286 288 287 287 288 287 288 288 288 287 284 284 284 281 283 284 284 286 286 286 287 288 287 285 284 284 282 282 281 280 280 283 283 284
Wind_Speed
2 5 14 10 5 3 3 4 5 3 6 4 7 8 15 14 6 9 9 9 11 13 19 10 13 13 8 11 12 15 15 15 11 9 8 7 9 7 6 7 9 8 7 7
3 14 6 6 4 1 2 4 3 4 5 3 6 13 10 15 8 10 16 15 13 10 13 10 14 14 16 17 19 16 16 16 14 11 9 7 8 7 7 7 7 8 8 8
11 2 9 7 4 6 8 11 6 4 6 4 6 19 10 12 15 15 16 16 12 16 18 14 14 17 18 18 19 19 20 20 16 16 8 3 3 2 4 5 6 8 10 10
6 4 10 7 9 9 7 7 7 10 1 8 3 16 8 6 19 12 16 17 19 19 18 19 17 17 19 21 20 19 20 19 17 18 14 16 13 13 11 10 8 8 11 11
5 9 8 8 9 9 3 7 7 5 4 3 4 8 7 7 17 20 12 17 19 20 22 23 20 20 19 19 19 20 20 19 19 18 19 14 16 11 9 8 8 10 8 11
2 2 4 7 5 10 6 5 4 2 1 10 15 9 20 13 14 20 7 13 19 20 19 19 17 17 17 16 18 18 20 21 19 19 21 20 19 15 10 9 9 8 8 8
3 3 2 2 5 2 5 4 1 4 6 11 9 10 29 7 13 11 10 14 15 15 14 14 15 16 16 18 20 18 20 21 21 21 21 21 21 18 17 14 11 11 9 7
12 7 10 7 7 7 9 7 5 7 5 5 2 11 19 8 11 11 11 17 12 11 13 15 15 17 19 18 19 20 20 21 21 22 22 20 19 13 13 14 11 9 9 9
6 6 1 3 5 9 5 10 8 4 3 4 6 10 15 15 15 15 13 8 13 16 16 14 12 14 16 16 19 22 22 21 20 22 19 18 18 18 15 14 12 9 9 7
7 3 2 4 3 5 5 6 5 5 6 7 7 6 16 3 3 5 9 15 19 15 10 10 11 13 15 17 17 19 20 21 21 22 19 17 18 17 15 11 13 13 11 10
5 4 2 6 10 9 6 9 3 1 6 4 7 10 16 15 13 17 18 14 11 11 10 9 10 11 14 13 13 16 17 18 18 19 18 17 16 16 14 13 13 14 11 12
6 4 5 7 2 1 7 9 16 10 7 3 9 22 6 8 8 7 12 14 9 9 11 11 10 9 8 13 13 16 17 18 18 17 18 19 17 15 15 15 14 13 13 10
12 5 2 3 2 3 6 5 5 14 8 16 11 18 5 6 6 9 9 15 11 10 12 8 9 8 8 12 13 15 15 16 15 14 17 16 16 17 17 16 14 13 11 10
14 5 6 8 5 2 7 8 8 8 10 21 19 34 42 29 22 12 12 12 13 11 13 9 8 8 8 9 11 11 10 12 12 13 15 15 16 17 16 13 12 12 9 9
4 6 4 3 4 4 6 6 8 11 19 14 27 22 40 28 14 14 16 20 24 28 24 16 10 8 7 6 8 8 7 7 8 12 13 14 11 10 10 11 10 8 9 8
4 2 3 3 6 8 10 16 15 16 11 13 23 26 41 33 25 28 24 15 20 21 25 19 13 9 9 8 9 8 8 10 10 11 11 8 10 10 10 10 11 10 8 8
6 5 4 6 1 5 10 19 13 12 13 12 16 33 36 37 27 22 23 23 25 26 25 23 19 15 10 10 9 10 8 6 10 9 10 10 11 10 10 11 11 11 10 8
10 6 4 4 4 2 12 8 15 21 13 14 19 28 29 32 22 22 26 24 23 22 25 21 13 13 9 6 6 5 6 6 7 7 7 9 10 11 11 12 11 9 9 9
6 5 3 4 4 9 22 8 8 9 16 23 22 26 30 27 18 29 26 24 27 29 26 22 13 11 6 8 7 8 7 9 8 8 8 9 11 13 11 11 11 8 9 6
4 5 6 3 5 10 6 4 2 6 15 17 21 26 18 13 13 23 16 19 19 21 20 19 12 7 8 8 9 9 10 9 9 10 9 7 10 12 13 12 11 4 8 7
7 7 15 9 7 12 13 9 4 7 15 6 4 6 6 6 11 20 15 26 22 19 17 12 8 10 13 9 11 12 10 12 10 7 8 7 7 9 10 11 7 8 9 9
10 11 7 9 9 22 12 4 11 12 3 2 4 5 10 15 21 17 13 20 18 21 19 8 9 11 8 10 13 13 14 9 9 13 10 8 8 7 8 11 8 10 11 10
7 10 9 15 14 8 8 10 12 5 7 9 4 12 13 15 19 19 16 18 15 18 16 6 10 5 5 7 10 14 12 14 14 13 15 11 10 8 8 10 10 9 8 9
7 5 13 4 24 16 8 8 6 7 18 20 9 10 11 16 17 19 16 15 12 16 14 6 6 9 10 9 8 6 9 16 16 13 13 13 13 10 8 6 7 7 7 7
10 11 13 13 30 2 14 11 12 14 14 15 15 13 15 13 16 16 17 17 13 13 14 5 12 12 14 12 10 7 8 10 12 18 13 10 12 11 10 6 5 6 3 6
14 21 12 16 17 7 18 15 19 17 16 19 12 12 10 11 15 16 16 16 11 13 14 8 9 7 7 9 10 11 9 9 12 10 12 11 10 9 8 9 7 10 9 12
Wind_Direction
145 172 205 199 203 61 94 203 222 227 243 247 242 244 259 265 242 266 263 229 228 224 233 220 214 216 185 197 194 196 192 195 186 190 189 205 208 206 209 210 205 194 196 190
137 220 182 124 145 164 296 298 252 295 266 247 268 262 239 267 245 218 244 244 222 235 244 210 206 199 204 204 203 202 204 194 195 196 202 207 196 208 211 208 203 198 192 193
200 296 156 134 148 203 246 249 252 260 334 278 318 279 242 255 246 230 236 240 231 222 236 226 213 200 208 210 209 203 203 203 198 197 187 156 138 117 186 197 205 203 198 195
212 177 159 156 197 164 225 187 212 257 69 262 53 284 245 240 261 231 232 236 233 227 230 229 219 205 203 210 210 205 206 205 203 195 193 201 209 215 216 215 216 201 197 202
178 165 153 191 204 169 222 149 176 191 222 299 221 277 287 215 248 261 237 234 238 235 232 235 226 211 207 206 206 205 205 206 202 196 201 199 210 215 211 208 210 204 197 201
113 11 176 183 151 169 162 87 57 72 200 244 240 221 271 244 242 265 238 237 237 242 237 242 233 220 215 207 206 203 200 204 199 199 200 200 207 204 198 195 201 204 204 202
104 212 181 156 127 83 171 147 230 224 199 243 184 200 250 282 287 257 252 259 248 249 251 237 224 213 216 207 202 200 197 200 196 196 198 203 206 200 202 201 200 194 196 197
190 216 182 181 162 170 191 183 183 212 215 261 88 223 255 230 258 275 279 259 253 254 247 242 226 217 218 214 206 199 196 201 195 195 201 203 201 201 206 204 200 200 197 198
140 254 356 173 150 157 187 202 217 287 129 277 220 277 293 255 255 261 259 260 258 259 252 238 238 228 223 214 204 202 201 202 194 197 200 199 198 201 205 203 193 195 192 184
195 146 192 184 100 286 161 146 173 180 232 244 245 256 251 332 315 280 267 266 262 271 268 247 234 224 222 220 212 207 206 201 194 196 196 199 197 200 201 190 188 188 189 185
156 111 185 139 211 179 176 226 190 131 191 216 275 261 255 264 236 246 271 280 273 281 273 270 259 249 230 217 212 209 205 202 201 192 194 195 196 197 193 195 193 192 183 190
158 132 163 205 6 204 208 212 212 217 246 254 274 273 220 220 238 229 260 270 282 280 285 286 269 257 239 226 203 207 203 202 201 197 189 193 192 186 189 194 193 187 193 191
165 212 79 353 310 286 220 213 228 237 269 260 233 257 76 268 307 305 275 281 284 277 293 287 284 267 251 241 233 209 207 205 197 190 192 189 188 186 193 193 186 180 185 185
154 181 190 185 166 146 186 205 217 219 230 248 245 264 279 268 275 277 282 269 286 293 296 282 257 252 248 260 246 225 204 202 190 187 190 191 186 188 191 185 173 173 171 162
120 185 163 150 164 161 194 200 205 220 250 250 262 268 275 281 285 275 274 292 297 297 299 295 295 274 245 243 261 257 189 183 180 186 189 193 185 172 156 157 159 151 155 152
149 173 115 264 229 231 241 242 226 230 242 258 272 276 262 291 286 279 278 284 282 286 287 290 280 269 257 229 231 225 228 185 172 187 192 165 153 152 158 149 146 139 130 129
147 135 133 264 300 85 289 230 220 225 220 225 250 261 274 272 271 285 285 275 274 278 280 281 279 267 247 221 213 224 193 163 177 180 159 165 153 152 150 141 138 138 142 133
150 129 117 194 49 215 246 184 215 217 228 214 239 254 263 271 287 272 260 265 279 280 280 278 264 263 244 214 202 187 183 162 143 156 159 153 152 147 143 142 143 135 140 141
137 124 139 159 183 293 285 180 178 171 242 225 238 257 262 269 284 268 264 268 263 263 266 268 255 235 211 190 176 171 210 159 154 154 172 169 154 144 146 146 142 132 131 120
107 119 129 88 141 223 294 201 228 82 271 234 228 245 281 297 275 276 311 288 271 265 262 264 252 216 196 198 164 170 197 166 179 166 167 170 155 151 152 143 135 114 121 119
172 193 218 211 239 269 237 264 152 153 258 87 99 213 246 259 252 286 305 296 288 275 268 248 223 207 214 166 162 189 202 185 171 133 132 141 140 140 137 129 118 122 119 113
166 176 192 205 227 255 199 130 191 227 262 204 319 295 283 286 292 286 274 289 301 290 273 232 228 225 201 179 173 193 206 145 149 140 138 142 130 127 131 127 122 127 127 129
218 188 179 187 213 226 184 211 217 218 259 272 254 288 290 284 292 292 286 292 300 297 277 229 221 208 188 184 194 204 184 151 157 156 145 144 128 125 134 138 137 125 141 141
247 181 231 72 248 230 240 247 233 268 276 283 267 252 276 282 293 290 288 290 300 299 286 242 209 211 207 192 184 230 173 158 154 152 148 145 138 132 127 121 136 147 154 134
210 158 225 244 259 330 244 247 258 260 267 271 266 259 265 278 281 284 287 289 289 288 292 225 227 221 210 186 159 142 171 168 174 145 143 152 134 135 128 114 146 147 87 149
197 219 204 232 250 213 257 247 251 253 255 265 255 270 254 251 275 285 285 282 279 286 293 260 243 225 175 165 154 146 155 156 150 150 137 147 128 127 127 121 105 98 120 122